EW4664 Weather Reports


time (UTC)temp
C
wind
direction
speed
KPH
gust
KPH
rain 1hr
cm
rain 24hr
cm
rain mn
cm
humidity
%
barometer
mb
20260503224019 23 0.0 0.0 0.00 0.00 0.00 46 1011.3
20260503223019 23 0.0 0.0 0.00 0.00 0.00 45 1011.5
20260503222019 23 0.0 0.0 0.00 0.00 0.00 45 1011.7
20260503221039 23 0.0 3.2 0.00 0.00 0.00 46 1011.8
20260503220019 23 0.0 0.0 0.00 0.00 0.00 47 1011.9
20260503215020 23 0.0 3.2 0.00 0.00 0.00 47 1012.0
20260503214019 23 0.0 3.2 0.00 0.00 0.00 47 1012.2
20260503213019 23 0.0 0.0 0.00 0.00 0.00 47 1012.1
20260503212019 23 0.0 4.8 0.00 0.00 0.00 47 1012.2
20260503211020 23 0.0 0.0 0.00 0.00 0.00 47 1012.3
20260503210019 22 0.0 1.6 0.00 0.00 0.00 47 1012.4
20260503205019 22 0.0 1.6 0.00 0.00 0.00 48 1012.6
20260503204019 22 0.0 0.0 0.00 0.00 0.00 47 1012.6
20260503203019 22 0.0 0.0 0.00 0.00 0.00 48 1012.6
20260503202019 22 0.0 1.6 0.00 0.00 0.00 50 1012.7
20260503201039 22 0.0 0.0 0.00 0.00 0.00 50 1012.8
20260503200019 22 0.0 0.0 0.00 0.00 0.00 52 1012.9
20260503195019 22 0.0 3.2 0.00 0.00 0.00 51 1013.1
20260503194019 22 0 1.6 3.2 0.00 0.00 0.00 50 1013.1
20260503193019 22 0 1.6 4.8 0.00 0.00 0.00 49 1013.3
20260503192020 21 0.0 0.0 0.00 0.00 0.00 55 1013.4
20260503191019 21 0.0 0.0 0.00 0.00 0.00 56 1013.5
20260503190019 21 0.0 0.0 0.00 0.00 0.00 56 1013.5
20260503185020 21 0.0 0.0 0.00 0.00 0.00 58 1013.6
20260503184019 20 0.0 3.2 0.00 0.00 0.00 57 1013.6
20260503183019 20 0.0 0.0 0.00 0.00 0.00 60 1013.8
20260503182019 20 0.0 0.0 0.00 0.00 0.00 60 1013.8
20260503181019 20 0.0 0.0 0.00 0.00 0.00 61 1014.0
20260503180019 20 0.0 0.0 0.00 0.00 0.00 62 1014.1
20260503175019 20 0.0 0.0 0.00 0.00 0.00 61 1014.3
20260503174039 20 0.0 0.0 0.00 0.00 0.00 62 1014.3
20260503173059 20 0.0 1.6 0.00 0.00 0.00 63 1014.3
20260503172019 19 0.0 0.0 0.00 0.00 0.00 64 1014.3
20260503171019 18 0.0 0.0 0.00 0.00 0.00 67 1014.4
20260503081458 12 30 0.0 0.0 0.00 0.00 0.00 76 1014.2
20260503071459 13 26 0.0 0.0 0.00 0.00 0.00 72 1014.0
20260503054459 15 24 0.0 0.0 0.00 0.00 0.00 68 1014.0
20260503053000 16 24 0.0 0.0 0.00 0.00 0.00 68 1013.9
20260503051459 16 24 0.0 0.0 0.00 0.00 0.00 68 1013.9
20260503044500 17 24 0.0 0.0 0.00 0.00 0.00 63 1013.8
20260503042959 17 24 0.0 0.0 0.00 0.00 0.00 65 1013.7
20260503041459 17 24 0.0 0.0 0.00 0.00 0.00 64 1013.5
20260503040000 18 24 0.0 0.0 0.00 0.00 0.00 61 1013.4
20260503034501 18 24 0.0 0.0 0.00 0.00 0.00 61 1013.3
20260503033124 19 23 0.0 0.0 0.00 0.00 0.00 60 1013.1
20260503032519 20 0.0 0.0 0.00 0.00 0.00 59 1013.2
20260503031518 20 0.0 0.0 0.00 0.00 0.00 59 1013.2
20260503030518 20 0.0 0.0 0.00 0.00 0.00 59 1013.1
20260503025520 21 0.0 0.0 0.00 0.00 0.00 58 1013.0
20260503024520 21 0.0 0.0 0.00 0.00 0.00 56 1013.0
20260503023520 21 0.0 0.0 0.00 0.00 0.00 54 1013.0
20260503022520 21 0.0 0.0 0.00 0.00 0.00 56 1013.1
20260503021521 21 0.0 0.0 0.00 0.00 0.00 53 1013.1
20260503020540 21 0.0 0.0 0.00 0.00 0.00 49 1013.1
20260503015520 22 0.0 0.0 0.00 0.00 0.00 49 1013.2
20260503014520 22 0.0 0.0 0.00 0.00 0.00 48 1013.3
20260503013520 22 0.0 0.0 0.00 0.00 0.00 48 1013.4
20260503012520 22 0.0 0.0 0.00 0.00 0.00 47 1013.5
20260503011520 22 0.0 0.0 0.00 0.00 0.00 47 1013.6
20260503010520 22 0.0 0.0 0.00 0.00 0.00 46 1013.5
20260503005519 22 0.0 0.0 0.00 0.00 0.00 46 1013.6
20260503004520 22 0.0 3.2 0.00 0.00 0.00 49 1013.6
20260503003540 22 0.0 0.0 0.00 0.00 0.00 47 1013.6
20260503002520 22 0.0 1.6 0.00 0.00 0.00 45 1013.6
20260503001520 22 0.0 0.0 0.00 0.00 0.00 46 1013.8
20260503000520 22 0.0 0.0 0.00 0.00 0.00 45 1013.8
20260502235519 22 0.0 0.0 0.00 0.00 0.00 45 1013.8
20260502234520 22 0.0 1.6 0.00 0.00 0.00 46 1013.9
20260502233519 22 0.0 0.0 0.00 0.00 0.00 46 1013.9
20260502232519 22 0.0 0.0 0.00 0.00 0.00 46 1014.1
20260502231519 22 0.0 0.0 0.00 0.00 0.00 48 1014.3
20260502230519 21 0.0 0.0 0.00 0.00 0.00 50 1014.4
20260502225520 21 0.0 1.6 0.00 0.00 0.00 51 1014.6